• In Österreich
  • Länderverzeichnis
  • Für 7 Tage
  • Wassertemperatur
  • Satellitenkarten
  • Wetterkarte
  • News
  • Widgets
  • user-avatar
    Anmelden

    Stündliche Wetter Sidorovskoe

    Heute, 16 Juli, Montag

    Zeit Temperatur Niederschläge Wind Luftdruck Luftfeuchtigkeit
    00:00 +20°C° 0 mm 1 m/S 750 mmHg 95%
    01:00 +19°C° 0 mm 1 m/S 750 mmHg 96%
    02:00 +19°C° 0 mm 1 m/S 750 mmHg 96%
    03:00 +18°C° 0 mm 2 m/S 751 mmHg 96%
    04:00 +18°C° 0 mm 2 m/S 751 mmHg 96%
    05:00 +18°C° 0 mm 2 m/S 751 mmHg 96%
    06:00 +20°C° 0 mm 2 m/S 751 mmHg 91%
    07:00 +23°C° 0 mm 2 m/S 751 mmHg 85%
    08:00 +24°C° 0 mm 2 m/S 751 mmHg 79%
    09:00 +26°C° 0,1 mm 3 m/S 751 mmHg 71%
    10:00 +27°C° 0,1 mm 3 m/S 750 mmHg 63%
    11:00 +29°C° 0,1 mm 4 m/S 750 mmHg 55%
    12:00 +29°C° 0,2 mm 4 m/S 750 mmHg 56%
    13:00 +29°C° 0,2 mm 4 m/S 750 mmHg 57%
    14:00 +30°C° 0,2 mm 4 m/S 750 mmHg 58%
    15:00 +29°C° 0,3 mm 3 m/S 750 mmHg 62%
    16:00 +28°C° 0,3 mm 3 m/S 750 mmHg 66%
    17:00 +28°C° 0,3 mm 2 m/S 749 mmHg 71%
    18:00 +26°C° 0,1 mm 2 m/S 750 mmHg 74%
    19:00 +25°C° 0,1 mm 2 m/S 750 mmHg 78%
    20:00 +24°C° 0,1 mm 2 m/S 750 mmHg 82%
    21:00 +23°C° 0 mm 2 m/S 750 mmHg 83%
    22:00 +21°C° 0 mm 2 m/S 750 mmHg 84%
    23:00 +20°C° 0 mm 2 m/S 750 mmHg 84%

    Morgen, 17 Juli, Dienstag

    Zeit Temperatur Niederschläge Wind Luftdruck Luftfeuchtigkeit
    00:00 +20°C° 0 mm 2 m/S 750 mmHg 86%
    01:00 +19°C° 0 mm 2 m/S 750 mmHg 87%
    02:00 +19°C° 0 mm 2 m/S 750 mmHg 88%
    03:00 +19°C° 0 mm 3 m/S 750 mmHg 87%
    04:00 +19°C° 0 mm 3 m/S 750 mmHg 86%
    05:00 +19°C° 0 mm 3 m/S 750 mmHg 86%
    06:00 +21°C° 0 mm 3 m/S 750 mmHg 79%
    07:00 +23°C° 0 mm 4 m/S 749 mmHg 73%
    08:00 +26°C° 0 mm 4 m/S 749 mmHg 66%
    09:00 +27°C° 0 mm 4 m/S 749 mmHg 61%
    10:00 +28°C° 0 mm 5 m/S 749 mmHg 56%
    11:00 +30°C° 0 mm 5 m/S 749 mmHg 51%
    12:00 +30°C° 0 mm 5 m/S 748 mmHg 49%
    13:00 +30°C° 0 mm 5 m/S 748 mmHg 48%
    14:00 +32°C° 0 mm 5 m/S 748 mmHg 47%
    15:00 +30°C° 0 mm 5 m/S 748 mmHg 49%
    16:00 +30°C° 0 mm 4 m/S 747 mmHg 50%
    17:00 +30°C° 0 mm 4 m/S 747 mmHg 52%
    18:00 +28°C° 0 mm 4 m/S 747 mmHg 58%
    19:00 +27°C° 0 mm 3 m/S 747 mmHg 64%
    20:00 +25°C° 0 mm 3 m/S 747 mmHg 69%
    21:00 +25°C° 0 mm 3 m/S 747 mmHg 71%
    22:00 +24°C° 0 mm 3 m/S 747 mmHg 72%
    23:00 +22°C° 0 mm 3 m/S 747 mmHg 73%

    übermorgen, 18 Juli, Mittwoch

    Zeit Temperatur Niederschläge Wind Luftdruck Luftfeuchtigkeit
    00:00 +22°C° 0 mm 3 m/S 747 mmHg 76%
    01:00 +21°C° 0 mm 3 m/S 747 mmHg 79%
    02:00 +21°C° 0 mm 3 m/S 747 mmHg 81%
    03:00 +21°C° 0,2 mm 3 m/S 747 mmHg 85%
    04:00 +20°C° 0,2 mm 3 m/S 747 mmHg 88%
    05:00 +20°C° 0,2 mm 3 m/S 747 mmHg 92%
    06:00 +21°C° 0,1 mm 3 m/S 747 mmHg 89%
    07:00 +22°C° 0,1 mm 3 m/S 747 mmHg 85%
    08:00 +24°C° 0,1 mm 3 m/S 747 mmHg 82%
    09:00 +26°C° 0,3 mm 4 m/S 747 mmHg 75%
    10:00 +27°C° 0,3 mm 4 m/S 747 mmHg 68%
    11:00 +29°C° 0,3 mm 4 m/S 747 mmHg 61%
    12:00 +30°C° 0,1 mm 4 m/S 747 mmHg 57%
    13:00 +30°C° 0,1 mm 4 m/S 747 mmHg 53%
    14:00 +32°C° 0,1 mm 5 m/S 747 mmHg 49%
    15:00 +32°C° 0 mm 4 m/S 747 mmHg 51%
    16:00 +30°C° 0 mm 4 m/S 747 mmHg 52%
    17:00 +30°C° 0 mm 4 m/S 747 mmHg 53%
    18:00 +28°C° 0,2 mm 3 m/S 747 mmHg 64%
    19:00 +26°C° 0,2 mm 3 m/S 747 mmHg 74%
    20:00 +23°C° 0,2 mm 2 m/S 747 mmHg 85%
    21:00 +23°C° 0 mm 2 m/S 747 mmHg 87%
    22:00 +21°C° 0 mm 2 m/S 747 mmHg 90%
    23:00 +20°C° 0 mm 2 m/S 748 mmHg 92%

    19 Juli, Donnerstag

    Zeit Temperatur Niederschläge Wind Luftdruck Luftfeuchtigkeit
    00:00 +19°C° 0 mm 2 m/S 748 mmHg 94%
    01:00 +19°C° 0 mm 2 m/S 747 mmHg 95%
    02:00 +18°C° 0 mm 2 m/S 747 mmHg 96%
    03:00 +18°C° 0 mm 2 m/S 747 mmHg 96%
    04:00 +18°C° 0 mm 2 m/S 748 mmHg 96%
    05:00 +18°C° 0 mm 3 m/S 748 mmHg 95%
    06:00 +19°C° 0 mm 3 m/S 748 mmHg 89%
    07:00 +21°C° 0 mm 3 m/S 748 mmHg 84%
    08:00 +22°C° 0 mm 3 m/S 748 mmHg 78%
    09:00 +22°C° 0 mm 3 m/S 748 mmHg 76%
    10:00 +22°C° 0 mm 3 m/S 748 mmHg 75%
    11:00 +24°C° 0 mm 3 m/S 748 mmHg 74%
    12:00 +24°C° 0,1 mm 3 m/S 747 mmHg 73%
    13:00 +24°C° 0,1 mm 2 m/S 747 mmHg 73%
    14:00 +25°C° 0,1 mm 2 m/S 747 mmHg 72%
    15:00 +25°C° 0,1 mm 2 m/S 747 mmHg 73%
    16:00 +25°C° 0,1 mm 2 m/S 747 mmHg 74%
    17:00 +25°C° 0,1 mm 2 m/S 747 mmHg 75%
    18:00 +24°C° 0,2 mm 2 m/S 747 mmHg 81%
    19:00 +23°C° 0,2 mm 2 m/S 747 mmHg 87%
    20:00 +22°C° 0,2 mm 1 m/S 748 mmHg 93%
    21:00 +21°C° 0,4 mm 1 m/S 748 mmHg 94%
    22:00 +21°C° 0,4 mm 1 m/S 748 mmHg 96%
    23:00 +20°C° 0,4 mm 1 m/S 748 mmHg 98%

    20 Juli, Freitag

    Zeit Temperatur Niederschläge Wind Luftdruck Luftfeuchtigkeit
    00:00 +20°C° 0,1 mm 1 m/S 748 mmHg 98%
    01:00 +20°C° 0,1 mm 1 m/S 748 mmHg 98%
    02:00 +19°C° 0,1 mm 1 m/S 748 mmHg 98%
    03:00 +20°C° 0 mm 1 m/S 748 mmHg 98%
    04:00 +20°C° 0 mm 1 m/S 748 mmHg 98%
    05:00 +20°C° 0 mm 1 m/S 748 mmHg 98%
    06:00 +21°C° 0 mm 1 m/S 748 mmHg 94%
    07:00 +22°C° 0 mm 1 m/S 748 mmHg 89%
    08:00 +24°C° 0 mm 1 m/S 748 mmHg 85%
    09:00 +25°C° 0,2 mm 1 m/S 748 mmHg 80%
    10:00 +27°C° 0,2 mm 1 m/S 748 mmHg 74%
    11:00 +28°C° 0,2 mm 1 m/S 748 mmHg 69%
    12:00 +28°C° 1,3 mm 1 m/S 747 mmHg 70%
    13:00 +28°C° 1,3 mm 1 m/S 747 mmHg 71%
    14:00 +28°C° 1,3 mm 2 m/S 747 mmHg 73%
    15:00 +28°C° 0,9 mm 1 m/S 747 mmHg 74%
    16:00 +28°C° 0,9 mm 1 m/S 747 mmHg 76%
    17:00 +28°C° 0,9 mm 1 m/S 747 mmHg 77%
    18:00 +26°C° 0,4 mm 1 m/S 747 mmHg 82%
    19:00 +25°C° 0,4 mm 1 m/S 747 mmHg 86%
    20:00 +24°C° 0,4 mm 1 m/S 747 mmHg 91%
    21:00 +23°C° 1,3 mm 1 m/S 747 mmHg 92%
    22:00 +22°C° 1,3 mm 1 m/S 747 mmHg 94%
    23:00 +22°C° 1,3 mm 1 m/S 747 mmHg 96%

    21 Juli, Samstag

    Zeit Temperatur Niederschläge Wind Luftdruck Luftfeuchtigkeit
    00:00 +21°C° 0,2 mm 1 m/S 747 mmHg 96%
    01:00 +21°C° 0,2 mm 1 m/S 747 mmHg 96%
    02:00 +21°C° 0,2 mm 1 m/S 747 mmHg 97%
    03:00 +21°C° 0 mm 1 m/S 747 mmHg 97%
    04:00 +21°C° 0 mm 1 m/S 747 mmHg 97%
    05:00 +21°C° 0 mm 1 m/S 747 mmHg 97%
    06:00 +23°C° 0 mm 1 m/S 748 mmHg 93%
    07:00 +24°C° 0 mm 1 m/S 748 mmHg 88%
    08:00 +26°C° 0 mm 1 m/S 748 mmHg 84%
    09:00 +27°C° 0,8 mm 1 m/S 748 mmHg 80%
    10:00 +28°C° 0,8 mm 1 m/S 747 mmHg 77%
    11:00 +29°C° 0,8 mm 1 m/S 747 mmHg 74%
    12:00 +29°C° 1,3 mm 1 m/S 747 mmHg 75%
    13:00 +29°C° 1,3 mm 1 m/S 747 mmHg 76%
    14:00 +29°C° 1,3 mm 2 m/S 747 mmHg 77%
    15:00 +28°C° 2 mm 2 m/S 747 mmHg 81%
    16:00 +27°C° 2 mm 2 m/S 747 mmHg 85%
    17:00 +27°C° 2 mm 2 m/S 747 mmHg 88%
    18:00 +26°C° 0,3 mm 1 m/S 747 mmHg 90%
    19:00 +25°C° 0,3 mm 1 m/S 747 mmHg 91%
    20:00 +24°C° 0,3 mm 1 m/S 747 mmHg 93%
    21:00 +23°C° 0,1 mm 1 m/S 747 mmHg 94%
    22:00 +23°C° 0,1 mm 1 m/S 747 mmHg 95%
    23:00 +22°C° 0,1 mm 1 m/S 747 mmHg 95%
    Mehr zeigen